sat.trackr.live / text

‹ back to catalog

BRO-16

NORAD 62654 · 2025-009AX

PAYLOAD ACTIVE UNKNOWN

§ Identity

Operator
Country
FR
Launch date
2025-01-14
Launch site
AFWTR
Launch vehicle
Mass (kg)
RCS (m²)

External: N2YO · Heavens-Above · Gunter

§ Orbital elements

Epoch: 2026-05-25T03:52:51.653280Z

Period
94.50 min
Inclination
97.4054°
Eccentricity
0.0002871
Mean motion
15.23745761 rev/d
Perigee alt
492.6 km
Apogee alt
496.5 km
Semi-major
6,872.7 km
B*
1.6244e-4
RAAN
225.9332°
Arg perigee
58.5150°
Mean anomaly
301.6367°
Rev number
7,529

§ Raw data

BRO-161 62654U 25009AX  26145.16170895  .00003834  00000+0  16244-3 0  99912 62654  97.4054 225.9332 0002871  58.5150 301.6367 15.23745761 75292

JSON: /api/v1/satellites/62654 · /tle

For live sub-satellite position, see the globe view (requires WebGL).

§ Visibility from observer

Set your observer location to see the next 7 days of passes ≥ 10°. The values pass through the URL so the page stays shareable.

No JS? Fill the form by hand. The geolocation button needs JavaScript.

§ Radio — SatNOGS DB

ModeDescriptionDownlinkUplink
FM Telemetry 401.850 MHz

1 transmitter · refreshed weekly from db.satnogs.org